Location: Alto Pass Reservoir
(37.5801°N, 89.3084°W)
Time: 13:27:58
(UTC+00:00)

NEOSSAT - Pass Details

Date: 27 September 2022
Orbit: 767 x 784 km, 98.4° (Epoch: 26 November)

Event Time Altitude Azimuth Distance (km) Brightness Sun altitude
Rises 02:17:11 0° 351° (N) 3,278 ? -29.7°
Reaches altitude 10° 02:20:41 10° 326° (NNW) 2,347 ? -30.4°
Maximum altitude 02:23:08 14° 298° (WNW) 2,104 ? -30.8°
Drops below altitude 10° 02:25:34 10° 269° (W) 2,341 ? -31.2°
Sets 02:29:04 0° 244° (WSW) 3,265 ? -31.9°
